Regional Weather Roundup
Issued by NWS

Home | Current Version | Previous Version | Graphics & Text | Print | Product List | Glossary On
Versions: 1 2 3 4 5 6 7 8 9 10 11 12 13 14 15 16 17 18 19 20 21 22 23 24 25 26 27 28 29 30 31 32 33 34 35 36 37 38 39 40 41 42 43 44 45 46 47 48 49 50
870
ASUS43 KTOP 301308
RWRKS

WEATHER ROUNDUP FOR KANSAS
NATIONAL WEATHER SERVICE GOODLAND KS
800 AM CDT FRI SEP 30 2016

NOTE:  "FAIR" INDICATES FEW OR NO CLOUDS BELOW 12,000 FEET WITH NO
SIGNIFICANT WEATHER AND/OR OBSTRUCTIONS TO VISIBILITY.

KSZ001>006-013>018-027>032-041>047-301400-
NORTHWEST KANSAS

CITY           SKY/WX    TMP DP  RH WIND       PRES   REMARKS
GOODLAND       CLEAR     47  42  83 S15       30.21F
HAYS           CLEAR     39  28  65 CALM      30.28S
HILL CITY      CLOUDY    43  41  93 E5        30.28S FOG
$$

KSZ061>065-074>080-084>089-301400-
SOUTHWEST KANSAS

CITY           SKY/WX    TMP DP  RH WIND       PRES   REMARKS
DODGE CITY     CLEAR     48  45  89 SE8       30.27F
ELKHART          N/A     44  37  76 SE9         N/A
GARDEN CITY    CLEAR     47  43  86 SE8       30.25S
GREAT BEND     CLEAR     45  34  65 CALM      30.29S
LIBERAL        CLEAR     48  41  76 SE7       30.26S
PRATT          CLEAR     42  41  95 CALM      30.29R FOG
$$

KSZ066>073-081>083-090>101-301400-
SOUTHEAST KANSAS

CITY           SKY/WX    TMP DP  RH WIND       PRES   REMARKS
CHANUTE        CLEAR     51  49  92 NW5       30.25R
COFFEYVILLE    CLEAR     50  49  96 NW5       30.25R
HUTCHINSON     CLEAR     45  44  97 NW3       30.29S
MEDICINE LODGE   N/A     45  43  93 CALM      30.28S
NEWTON         CLEAR     48  46  93 N7        30.29R
PARSONS        CLEAR     47  46  97 CALM      30.26R
WICHITA INTL   CLEAR     50  48  93 N5        30.28R
WICHITA JABRA  CLEAR     49  47  93 N6        30.27S
WICHITA MCCONL CLEAR     50  47  89 N5        30.27S
WINFIELD       CLEAR     48  47  96 N3        30.28S
$$

KSZ007>012-019>026-033>040-048>060-102>105-301400-
NORTHEAST KANSAS

CITY           SKY/WX    TMP DP  RH WIND       PRES   REMARKS
CONCORDIA      CLEAR     45  44  97 W3        30.30R FOG
EMPORIA        CLEAR     48  47  96 NW5       30.27R
LAWRENCE       CLEAR     48  47  96 NW5       30.26S
MANHATTAN      PTCLDY    45  43  93 CALM      30.28S
MARYSVILLE     CLEAR     43  43 100 N5        30.29S
OLATHE IND     CLEAR     50  48  93 NW5       30.25S
OLATHE EXE     CLEAR     51  48  89 N6        30.24S
SALINA         CLEAR     47  45  93 CALM      30.30R
TOPEKA BILLARD CLEAR     48  46  93 CALM      30.27S
TOPEKA FORBES  CLEAR     50  47  89 N5        30.26S
$$




USA.gov is the U.S. government's official web portal to all federal, state and local government web resources and services.